TimeCDT,TemperatureF,Dew PointF,Humidity,Sea Level PressureIn,VisibilityMPH,Wind Direction,Wind SpeedMPH,Gust SpeedMPH,PrecipitationIn,Events,Conditions,WindDirDegrees,DateUTC
12:15 AM,77.7,46.6,33,29.92,10.0,South,15.0,-,N/A,,Scattered Clouds,180,2013-05-15 05:15:00
12:35 AM,78.8,46.2,32,29.92,10.0,South,15.0,-,N/A,,Clear,170,2013-05-15 05:35:00
12:55 AM,78.8,45.7,31,29.93,10.0,South,15.0,-,N/A,,Scattered Clouds,180,2013-05-15 05:55:00
1:35 AM,75.0,52.0,44,29.93,10.0,South,15.0,20.7,N/A,,Clear,190,2013-05-15 06:35:00
1:55 AM,74.7,53.8,48,29.93,10.0,South,18.4,24.2,N/A,,Clear,180,2013-05-15 06:55:00
2:15 AM,73.9,54.9,51,29.93,10.0,South,13.8,-,N/A,,Clear,190,2013-05-15 07:15:00
2:35 AM,73.0,55.4,54,29.93,10.0,South,12.7,-,N/A,,Clear,190,2013-05-15 07:35:00
2:55 AM,72.7,55.2,54,29.93,10.0,South,12.7,-,N/A,,Clear,190,2013-05-15 07:55:00
3:15 AM,73.2,54.7,52,29.93,10.0,SSW,12.7,-,N/A,,Clear,200,2013-05-15 08:15:00
3:35 AM,73.0,54.9,53,29.92,10.0,SSW,12.7,-,N/A,,Clear,200,2013-05-15 08:35:00
3:55 AM,72.5,55.8,56,29.92,10.0,SSW,13.8,19.6,N/A,,Clear,200,2013-05-15 08:55:00
4:15 AM,72.1,56.5,58,29.91,10.0,SSW,13.8,-,N/A,,Clear,200,2013-05-15 09:15:00
4:35 AM,71.8,56.7,59,29.92,10.0,South,16.1,-,N/A,,Clear,180,2013-05-15 09:35:00
4:55 AM,71.6,57.0,60,29.91,10.0,South,13.8,20.7,N/A,,Clear,190,2013-05-15 09:55:00
5:15 AM,71.4,57.2,61,29.91,10.0,SSW,12.7,-,N/A,,Clear,200,2013-05-15 10:15:00
5:35 AM,71.4,56.8,60,29.91,10.0,SSW,10.4,-,N/A,,Clear,210,2013-05-15 10:35:00
5:55 AM,71.1,56.8,61,29.91,10.0,SW,9.2,-,N/A,,Clear,220,2013-05-15 10:55:00
6:15 AM,70.3,57.4,63,29.91,10.0,SSW,6.9,-,N/A,,Clear,210,2013-05-15 11:15:00
6:35 AM,69.8,57.6,65,29.91,10.0,South,5.8,-,N/A,,Mostly Cloudy,180,2013-05-15 11:35:00
6:55 AM,69.6,57.6,65,29.93,10.0,SE,5.8,-,N/A,,Overcast,140,2013-05-15 11:55:00
7:15 AM,69.3,58.1,68,29.92,10.0,SSE,3.5,-,N/A,,Mostly Cloudy,150,2013-05-15 12:15:00
7:35 AM,68.5,58.5,70,29.93,10.0,SSE,4.6,-,N/A,,Scattered Clouds,150,2013-05-15 12:35:00
7:55 AM,69.1,58.3,68,29.92,10.0,SSE,5.8,-,N/A,,Scattered Clouds,150,2013-05-15 12:55:00
8:15 AM,69.4,57.9,67,29.93,10.0,SSE,9.2,-,N/A,,Mostly Cloudy,150,2013-05-15 13:15:00
8:35 AM,70.3,57.6,64,29.93,10.0,SE,10.4,-,N/A,,Overcast,140,2013-05-15 13:35:00
8:55 AM,70.7,57.7,63,29.93,10.0,SSE,8.1,-,N/A,,Overcast,160,2013-05-15 13:55:00
9:15 AM,71.1,58.5,64,29.94,10.0,South,9.2,-,N/A,,Overcast,170,2013-05-15 14:15:00
9:35 AM,69.8,60.6,73,29.95,7.0,SSE,5.8,-,N/A,,Overcast,150,2013-05-15 14:35:00
9:55 AM,68.4,61.9,80,29.95,7.0,South,5.8,-,0.01,,Overcast,170,2013-05-15 14:55:00
10:15 AM,68.0,62.8,83,29.94,7.0,SSE,4.6,-,0.01,,Overcast,150,2013-05-15 15:15:00
10:35 AM,68.2,63.7,85,29.93,7.0,SSE,6.9,-,0.03,,Overcast,160,2013-05-15 15:35:00
10:55 AM,69.6,64.0,82,29.92,10.0,SE,9.2,-,0.03,,Overcast,140,2013-05-15 15:55:00
11:15 AM,71.1,64.0,78,29.93,10.0,South,10.4,-,N/A,,Mostly Cloudy,190,2013-05-15 16:15:00
11:35 AM,72.3,63.9,75,29.93,10.0,SSW,10.4,-,N/A,,Overcast,200,2013-05-15 16:35:00
11:55 AM,73.4,63.9,72,29.91,10.0,SSW,10.4,-,N/A,,Mostly Cloudy,200,2013-05-15 16:55:00
12:15 PM,76.5,63.7,64,29.90,10.0,South,16.1,19.6,N/A,,Scattered Clouds,180,2013-05-15 17:15:00
12:55 PM,78.3,61.5,56,29.89,10.0,South,9.2,17.3,N/A,,Scattered Clouds,180,2013-05-15 17:55:00
1:15 PM,78.3,61.0,55,29.88,10.0,South,11.5,16.1,N/A,,Scattered Clouds,170,2013-05-15 18:15:00
1:35 PM,77.7,60.8,56,29.87,10.0,SSE,10.4,-,N/A,,Mostly Cloudy,160,2013-05-15 18:35:00
1:55 PM,77.4,61.3,58,29.87,10.0,South,11.5,19.6,N/A,,Mostly Cloudy,180,2013-05-15 18:55:00
2:15 PM,78.4,61.0,55,29.86,10.0,South,12.7,17.3,N/A,,Mostly Cloudy,180,2013-05-15 19:15:00
2:35 PM,78.8,61.5,55,29.84,10.0,SSW,8.1,18.4,N/A,,Scattered Clouds,200,2013-05-15 19:35:00
2:55 PM,79.9,61.7,54,29.82,10.0,SSW,13.8,18.4,N/A,,Clear,210,2013-05-15 19:55:00
3:15 PM,81.9,61.3,50,29.81,10.0,SSW,11.5,17.3,N/A,,Clear,200,2013-05-15 20:15:00
3:35 PM,83.3,61.2,47,29.80,10.0,South,8.1,-,N/A,,Clear,190,2013-05-15 20:35:00
3:55 PM,84.7,59.7,43,29.79,10.0,SSW,12.7,21.9,N/A,,Clear,210,2013-05-15 20:55:00
4:35 PM,85.5,57.0,38,29.77,10.0,South,8.1,-,N/A,,Clear,190,2013-05-15 21:35:00
4:55 PM,-9999,-9999,N/A,29.76,10.0,SE,4.6,-,N/A,,Unknown,130,2013-05-15 21:55:00
5:15 PM,85.5,57.6,39,29.74,10.0,South,3.5,-,N/A,,Scattered Clouds,170,2013-05-15 22:15:00
5:35 PM,86.0,57.4,38,29.74,10.0,SW,3.5,-,N/A,,Clear,220,2013-05-15 22:35:00
5:55 PM,87.1,56.3,35,29.73,10.0,SE,4.6,-,N/A,,Clear,140,2013-05-15 22:55:00
6:15 PM,87.3,55.8,34,29.72,10.0,South,6.9,-,N/A,,Clear,190,2013-05-15 23:15:00
6:35 PM,86.4,55.2,34,29.72,10.0,Calm,Calm,-,N/A,Thunderstorm,Clear,0,2013-05-15 23:35:00
6:55 PM,87.1,54.9,33,29.72,10.0,SE,4.6,-,N/A,,Clear,130,2013-05-15 23:55:00
7:15 PM,86.4,54.5,34,29.73,10.0,SE,6.9,-,N/A,,Clear,130,2013-05-16 00:15:00
7:35 PM,86.2,54.9,34,29.72,10.0,ESE,6.9,-,N/A,,Clear,110,2013-05-16 00:35:00
7:55 PM,83.1,57.6,42,29.75,10.0,East,20.7,26.5,N/A,,Clear,80,2013-05-16 00:55:00
8:15 PM,75.7,60.1,58,29.75,10.0,ENE,17.3,20.7,N/A,,Clear,70,2013-05-16 01:15:00
8:35 PM,-9999,-9999,N/A,29.74,10.0,ENE,13.8,-,N/A,,Unknown,70,2013-05-16 01:35:00
8:55 PM,70.3,61.3,73,29.74,10.0,ENE,12.7,-,N/A,,Clear,70,2013-05-16 01:55:00
9:15 PM,69.4,60.8,74,29.73,10.0,East,12.7,18.4,N/A,,Clear,90,2013-05-16 02:15:00
9:35 PM,68.9,60.1,73,29.73,10.0,NE,9.2,-,N/A,,Clear,50,2013-05-16 02:35:00
9:55 PM,68.0,59.9,75,29.75,10.0,East,11.5,-,N/A,,Clear,90,2013-05-16 02:55:00
10:15 PM,67.5,59.7,76,29.76,10.0,ENE,9.2,-,N/A,,Clear,70,2013-05-16 03:15:00
10:35 PM,67.1,59.9,78,29.77,10.0,East,11.5,-,N/A,,Clear,80,2013-05-16 03:35:00
10:55 PM,66.9,60.3,79,29.77,10.0,ENE,12.7,-,N/A,,Clear,70,2013-05-16 03:55:00
11:15 PM,66.6,60.3,80,29.77,10.0,ENE,12.7,-,N/A,,Clear,70,2013-05-16 04:15:00
11:35 PM,66.4,60.6,82,29.77,10.0,East,13.8,-,N/A,,Scattered Clouds,80,2013-05-16 04:35:00
11:55 PM,66.6,60.8,82,29.76,10.0,East,11.5,-,N/A,,Scattered Clouds,80,2013-05-16 04:55:00